******************************************************************************* JPL/HORIZONS 741537 (2006 HV5) 2025-Dec-12 18:03:53 Rec #: 741537 (+COV) Soln.date: 2024-Dec-14_13:24:31 # obs: 393 (2006-2023) IAU76/J2000 helio. ecliptic osc. elements (au, days, deg., period=Julian yrs): EPOCH= 2458847.5 ! 2019-Dec-30.00 (TDB) Residual RMS= .27121 EC= .3162146622561871 QR= .5759256281219538 TP= 2458734.9591372325 OM= 35.96133577051648 W= 317.529039691781 IN= 32.00123505575203 A= .842260862191418 MA= 143.4975159961142 ADIST= 1.108596096260882 PER= .773 N= 1.275070339 ANGMOM= .01497711 DAN= .61467 DDN= .98864 L= 358.139429 B= -20.966531 MOID= .0161228 TP= 2019-Sep-08.4591372325 Asteroid physical parameters (km, seconds, rotational period in hours): GM= n.a. RAD= .1535 ROTPER= n.a. H= 19.41 G= .150 B-V= n.a. ALBEDO= .246 STYP= n.a. ASTEROID comments: 1: soln ref.= JPL#62, PHA OCC=0 radar( 7 delay, 2 Dop.) 2: source=ORB ******************************************************************************* ******************************************************************************* Ephemeris / WWW_USER Fri Dec 12 18:03:54 2025 Pasadena, USA / Horizons ******************************************************************************* Target body name: 741537 (2006 HV5) {source: JPL#62} Center body name: Earth (399) {source: DE441} Center-site name: GEOCENTRIC ******************************************************************************* Start time : A.D. 2023-Apr-21 00:00:00.0000 UT Stop time : A.D. 2023-Apr-26 00:00:00.0000 UT Step-size : 120 minutes ******************************************************************************* Target pole/equ : undefined Target radii : 0.154 km Center geodetic : 0.0, 0.0, -6378.137 {E-lon(deg),Lat(deg),Alt(km)} Center cylindric: 0.0, 0.0, 0.0 {E-lon(deg),Dxy(km),Dz(km)} Center pole/equ : ITRF93 {East-longitude positive} Center radii : 6378.137, 6378.137, 6356.752 km {Equator_a, b, pole_c} Target primary : Sun Vis. interferer : MOON (R_eq= 1737.400) km {source: DE441} Rel. light bend : Sun {source: DE441} Rel. lght bnd GM: 1.3271E+11 km^3/s^2 Small-body perts: Yes {source: SB441-N16} Atmos refraction: NO (AIRLESS) RA format : HMS Time format : CAL Calendar mode : Mixed Julian/Gregorian EOP file : eop.251212.p260310 EOP coverage : DATA-BASED 1962-JAN-20 TO 2025-DEC-12. PREDICTS-> 2026-MAR-09 Units conversion: 1 au= 149597870.700 km, c= 299792.458 km/s, 1 day= 86400.0 s Table cut-offs 1: Elevation (-90.0deg=NO ),Airmass (>38.000=NO), Daylight (NO ) Table cut-offs 2: Solar elongation ( 0.0,180.0=NO ),Local Hour Angle( 0.0=NO ) Table cut-offs 3: RA/DEC angular rate ( 0.0=NO ) ******************************************************************************* Initial IAU76/J2000 heliocentric ecliptic osculating elements (au, days, deg.): EPOCH= 2458847.5 ! 2019-Dec-30.00 (TDB) Residual RMS= .27121 EC= .3162146622561871 QR= .5759256281219538 TP= 2458734.9591372325 OM= 35.96133577051648 W= 317.529039691781 IN= 32.00123505575203 Equivalent ICRF heliocentric cartesian coordinates (au, au/d): X=-8.754386761376225E-01 Y= 1.367129259648277E-01 Z= 6.129964361378297E-01 VX=-8.619055533721715E-03 VY=-9.046100447347523E-03 VZ=-6.468660620912789E-03 Asteroid physical parameters (km, seconds, rotational period in hours): GM= n.a. RAD= .1535 ROTPER= n.a. H= 19.41 G= .150 B-V= n.a. ALBEDO= .246 STYP= n.a. ********************************************************************************************************************************* Date__(UT)__HR:MN R.A._____(ICRF)_____DEC APmag S-brt delta deldot S-O-T /r T-O-M/MN_Illu% Cnst ********************************************************************************************************************************* $$SOE 2023-Apr-21 00:00 18 17 18.83 +44 46 48.0 15.866 4.504 0.05422421736328 -16.5502571 98.0571 /L 101.0/ 0.8363 Lyr 2023-Apr-21 02:00 18 18 09.02 +45 00 15.5 15.842 4.509 0.05342819162223 -16.5276910 97.8558 /L 101.0/ 1.0115 Lyr 2023-Apr-21 04:00 18 19 01.12 +45 14 05.8 15.817 4.513 0.05263327887549 -16.5039915 97.6473 /L 101.0/ 1.2028 Lyr 2023-Apr-21 06:00 18 19 55.24 +45 28 19.9 15.793 4.517 0.05183953526711 -16.4790915 97.4311 /L 100.9/ 1.4099 Lyr 2023-Apr-21 08:00 18 20 51.50 +45 42 58.8 15.768 4.522 0.05104702029881 -16.4529186 97.2069 /L 100.9/ 1.6328 Lyr 2023-Apr-21 10:00 18 21 50.03 +45 58 03.4 15.744 4.527 0.05025579708133 -16.4253951 96.9744 /L 100.8/ 1.8711 Lyr 2023-Apr-21 12:00 18 22 50.97 +46 13 34.9 15.719 4.532 0.04946593260778 -16.3964373 96.7331 /L 100.8/ 2.1248 Lyr 2023-Apr-21 14:00 18 23 54.47 +46 29 34.3 15.694 4.537 0.04867749805124 -16.3659550 96.4827 /L 100.7/ 2.3936 Lyr 2023-Apr-21 16:00 18 25 00.70 +46 46 02.8 15.669 4.542 0.04789056908917 -16.3338512 96.2226 /L 100.6/ 2.6774 Lyr 2023-Apr-21 18:00 18 26 09.83 +47 03 01.7 15.643 4.548 0.04710522625708 -16.3000209 95.9525 /L 100.4/ 2.9758 Lyr 2023-Apr-21 20:00 18 27 22.06 +47 20 32.3 15.618 4.554 0.04632155533470 -16.2643511 95.6719 /L 100.3/ 3.2888 Lyr 2023-Apr-21 22:00 18 28 37.60 +47 38 35.8 15.593 4.560 0.04553964776785 -16.2267192 95.3802 /L 100.1/ 3.6161 Dra 2023-Apr-22 00:00 18 29 56.69 +47 57 13.8 15.567 4.566 0.04475960112969 -16.1869930 95.0769 /L 99.9/ 3.9574 Dra 2023-Apr-22 02:00 18 31 19.56 +48 16 27.6 15.542 4.573 0.04398151962562 -16.1450290 94.7613 /L 99.7/ 4.3127 Dra 2023-Apr-22 04:00 18 32 46.50 +48 36 18.9 15.516 4.580 0.04320551464618 -16.1006718 94.4329 /L 99.5/ 4.6816 Dra 2023-Apr-22 06:00 18 34 17.81 +48 56 49.3 15.491 4.587 0.04243170537309 -16.0537530 94.0910 /L 99.3/ 5.0639 Dra 2023-Apr-22 08:00 18 35 53.82 +49 18 00.3 15.465 4.594 0.04166021944424 -16.0040894 93.7349 /L 99.0/ 5.4595 Dra 2023-Apr-22 10:00 18 37 34.89 +49 39 53.9 15.439 4.602 0.04089119368350 -15.9514821 93.3639 /L 98.7/ 5.8680 Dra 2023-Apr-22 12:00 18 39 21.44 +50 02 31.7 15.414 4.610 0.04012477490271 -15.8957148 92.9770 /L 98.4/ 6.2893 Dra 2023-Apr-22 14:00 18 41 13.89 +50 25 55.6 15.389 4.619 0.03936112078312 -15.8365518 92.5735 /L 98.1/ 6.7231 Dra 2023-Apr-22 16:00 18 43 12.75 +50 50 07.7 15.363 4.628 0.03860040084516 -15.7737364 92.1524 /L 97.7/ 7.1691 Dra 2023-Apr-22 18:00 18 45 18.57 +51 15 09.7 15.338 4.638 0.03784279751550 -15.7069887 91.7128 /L 97.4/ 7.6273 Dra 2023-Apr-22 20:00 18 47 31.94 +51 41 03.8 15.314 4.648 0.03708850730220 -15.6360032 91.2535 /L 97.0/ 8.0973 Dra 2023-Apr-22 22:00 18 49 53.55 +52 07 52.0 15.289 4.658 0.03633774208886 -15.5604459 90.7736 /L 96.6/ 8.5788 Dra 2023-Apr-23 00:00 18 52 24.15 +52 35 36.3 15.265 4.669 0.03559073056053 -15.4799521 90.2717 /L 96.1/ 9.0718 Dra 2023-Apr-23 02:00 18 55 04.60 +53 04 18.7 15.241 4.681 0.03484771977485 -15.3941226 89.7466 /L 95.6/ 9.5758 Dra 2023-Apr-23 04:00 18 57 55.83 +53 34 01.1 15.217 4.693 0.03410897689298 -15.3025205 89.1969 /L 95.1/ 10.0908 Dra 2023-Apr-23 06:00 19 00 58.94 +54 04 45.5 15.195 4.706 0.03337479108629 -15.2046675 88.6212 /L 94.6/ 10.6164 Dra 2023-Apr-23 08:00 19 04 15.12 +54 36 33.4 15.173 4.719 0.03264547563560 -15.1000394 88.0179 /L 94.1/ 11.1524 Dra 2023-Apr-23 10:00 19 07 45.73 +55 09 26.4 15.151 4.734 0.03192137024057 -14.9880618 87.3853 /L 93.5/ 11.6987 Cyg 2023-Apr-23 12:00 19 11 32.34 +55 43 25.6 15.131 4.749 0.03120284355774 -14.8681049 86.7216 /L 92.9/ 12.2548 Dra 2023-Apr-23 14:00 19 15 36.68 +56 18 31.7 15.111 4.765 0.03049029598569 -14.7394786 86.0250 /L 92.2/ 12.8207 Dra 2023-Apr-23 16:00 19 20 00.76 +56 54 44.9 15.093 4.783 0.02978416271559 -14.6014264 85.2934 /L 91.5/ 13.3961 Dra 2023-Apr-23 18:00 19 24 46.86 +57 32 04.3 15.076 4.801 0.02908491706393 -14.4531195 84.5246 /L 90.8/ 13.9808 Dra 2023-Apr-23 20:00 19 29 57.56 +58 10 28.5 15.060 4.820 0.02839307410231 -14.2936506 83.7164 /L 90.1/ 14.5745 Cyg 2023-Apr-23 22:00 19 35 35.83 +58 49 54.4 15.047 4.841 0.02770919459454 -14.1220272 82.8664 /L 89.3/ 15.1770 Dra 2023-Apr-24 00:00 19 41 45.03 +59 30 17.4 15.035 4.863 0.02703388924567 -13.9371656 81.9719 /L 88.5/ 15.7880 Dra 2023-Apr-24 02:00 19 48 29.00 +60 11 30.6 15.026 4.887 0.02636782325817 -13.7378839 81.0304 /L 87.6/ 16.4074 Dra 2023-Apr-24 04:00 19 55 52.09 +60 53 24.5 15.019 4.913 0.02571172117798 -13.5228972 80.0389 /L 86.7/ 17.0350 Dra 2023-Apr-24 06:00 20 03 59.21 +61 35 46.3 15.015 4.940 0.02506637199566 -13.2908119 78.9945 /L 85.8/ 17.6704 Cep 2023-Apr-24 08:00 20 12 55.85 +62 18 18.5 15.015 4.970 0.02443263444432 -13.0401232 77.8943 /L 84.8/ 18.3135 Dra 2023-Apr-24 10:00 20 22 48.03 +63 00 38.8 15.018 5.001 0.02381144240582 -12.7692133 76.7350 /L 83.8/ 18.9641 Dra 2023-Apr-24 12:00 20 33 42.30 +63 42 18.0 15.026 5.036 0.02320381029697 -12.4763542 75.5137 /L 82.7/ 19.6219 Cep 2023-Apr-24 14:00 20 45 45.47 +64 22 39.2 15.040 5.073 0.02261083825842 -12.1597134 74.2270 /L 81.6/ 20.2867 Cep 2023-Apr-24 16:00 20 59 04.36 +65 00 56.5 15.058 5.113 0.02203371690839 -11.8173663 72.8720 /L 80.4/ 20.9584 Cep 2023-Apr-24 18:00 21 13 45.20 +65 36 13.2 15.084 5.157 0.02147373135107 -11.4473152 71.4457 /L 79.2/ 21.6366 Cep 2023-Apr-24 20:00 21 29 52.87 +66 07 21.7 15.116 5.205 0.02093226404664 -11.0475179 69.9455 /L 78.0/ 22.3213 Cep 2023-Apr-24 22:00 21 47 29.81 +66 33 02.9 15.157 5.257 0.02041079605794 -10.6159271 68.3691 /L 76.7/ 23.0121 Cep 2023-Apr-25 00:00 22 06 34.73 +66 51 47.6 15.207 5.314 0.01991090609403 -10.1505426 66.7147 /L 75.4/ 23.7089 Cep 2023-Apr-25 02:00 22 27 01.31 +67 01 59.8 15.268 5.376 0.01943426668178 -9.6494786 64.9812 /L 74.0/ 24.4115 Cep 2023-Apr-25 04:00 22 48 37.15 +67 02 01.7 15.340 5.445 0.01898263672610 -9.1110468 63.1685 /L 72.6/ 25.1196 Cep 2023-Apr-25 06:00 23 11 03.66 +66 50 21.2 15.426 5.520 0.01855784968814 -8.5338551 61.2775 /L 71.2/ 25.8331 Cep 2023-Apr-25 08:00 23 33 56.97 +66 25 40.2 15.526 5.602 0.01816179664077 -7.9169216 59.3106 /L 69.7/ 26.5518 Cep 2023-Apr-25 10:00 23 56 50.21 +65 47 02.7 16. 6. 0.01779640358060 -7.2597983 57.2718 /L 68.3/ 27.2754 Cas 2023-Apr-25 12:00 00 19 16.52 +64 54 00.1 16. 6. 0.01746360261177 -6.5627007 55.1670 /L 66.8/ 28.0038 Cas 2023-Apr-25 14:00 00 40 52.06 +63 46 33.4 16. 6. 0.01716529698872 -5.8266316 53.0045 /L 65.3/ 28.7368 Cas 2023-Apr-25 16:00 01 01 18.24 +62 25 11.9 16. 6. 0.01690332051695 -5.0534896 50.7949 /L 63.9/ 29.4742 Cas 2023-Apr-25 18:00 01 20 22.71 +60 50 48.7 16. 6. 0.01667939244047 -4.2461458 48.5514 /L 62.5/ 30.2158 Cas 2023-Apr-25 20:00 01 37 59.17 +59 04 35.5 17. 6. 0.01649506963661 -3.4084765 46.2898 /L 61.2/ 30.9614 Cas 2023-Apr-25 22:00 01 54 06.33 +57 07 56.9 17. 6. 0.01635169860192 -2.5453374 44.0291 /L 59.9/ 31.7109 Per 2023-Apr-26 00:00 02 08 46.67 +55 02 25.3 17. 7. 0.01625037022833 -1.6624726 41.7904 /L 58.7/ 32.4640 Per $$EOE ********************************************************************************************************************************* Column meaning: TIME Times PRIOR to 1962 are UT1, a mean-solar time closely related to the prior but now-deprecated GMT. Times AFTER 1962 are in UTC, the current civil or "wall-clock" time-scale. UTC is kept within 0.9 seconds of UT1 using integer leap-seconds for 1972 and later years. Conversion from the internal Barycentric Dynamical Time (TDB) of solar system dynamics to the non-uniform civil UT time-scale requested for output has not been determined for UTC times after the next July or January 1st. Therefore, the last known leap-second is used as a constant over future intervals. Time tags refer to the UT time-scale conversion from TDB on Earth regardless of observer location within the solar system, although clock rates may differ due to the local gravity field and no analog to "UT" may be defined for that location. Any 'b' symbol in the 1st-column denotes a B.C. date. First-column blank (" ") denotes an A.D. date. CALENDAR SYSTEM Mixed calendar mode was active such that calendar dates after AD 1582-Oct-15 (if any) are in the modern Gregorian system. Dates prior to 1582-Oct-5 (if any) are in the Julian calendar system, which is automatically extended for dates prior to its adoption on 45-Jan-1 BC. The Julian calendar is useful for matching historical dates. The Gregorian calendar more accurately corresponds to the Earth's orbital motion and seasons. A "Gregorian-only" calendar mode is available if such physical events are the primary interest. NOTE: "n.a." in output means quantity "not available" at the print-time. 'R.A._____(ICRF)_____DEC' = Astrometric right ascension and declination of the target center with respect to the observing site (coordinate origin) in the reference frame of the planetary ephemeris (ICRF). Compensated for down-leg light-time delay aberration. Units: RA in hours-minutes-seconds of time, HH MM SS.ff{ffff} DEC in degrees-minutes-seconds of arc, sDD MN SC.f{ffff} 'APmag S-brt' = The asteroids' approximate apparent airless visual magnitude and surface brightness using the standard IAU H-G system magnitude model: APmag = H + 5*log10(delta) + 5*log10(r) - 2.5*log10((1-G)*phi_1 + G*phi_2) For solar phase angles >90 deg, the error could exceed 1 magnitude. For phase angles >120 degrees, output values are rounded to the nearest integer to indicate error could be large and unknown. For Earth-based observers, the estimated dimming due to atmospheric absorption (extinction) is available as a separate, requestable quantity. Surface brightness is the average airless visual magnitude of a square-arcsecond of the illuminated portion of the apparent disk. It is computed only if the target radius is known. Units: MAGNITUDES & MAGNITUDES PER SQUARE ARCSECOND 'delta deldot' = Apparent range ("delta", light-time aberrated) and range-rate ("delta-dot") of the target center relative to the observer. A positive "deldot" means the target center is moving away from the observer, negative indicates movement toward the observer. Units: AU and KM/S 'S-O-T /r' = Sun-Observer-Target apparent SOLAR ELONGATION ANGLE seen from the observers' location at print-time. The '/r' column provides a code indicating the targets' apparent position relative to the Sun in the observers' sky, as described below: Case A: For an observing location on the surface of a rotating body, that body rotational sense is considered: /T indicates target TRAILS Sun (evening sky: rises and sets AFTER Sun) /L indicates target LEADS Sun (morning sky: rises and sets BEFORE Sun) Case B: For an observing point that does not have a rotational model (such as a spacecraft), the "leading" and "trailing" condition is defined by the observers' heliocentric ORBITAL motion: * If continuing in the observers' current direction of heliocentric motion would encounter the targets' apparent longitude first, followed by the Sun's, the target LEADS the Sun as seen by the observer. * If the Sun's apparent longitude would be encountered first, followed by the targets', the target TRAILS the Sun. Two other codes can be output: /* indicates observer is Sun-centered (undefined) /? Target is aligned with Sun center (no lead or trail) The S-O-T solar elongation angle is numerically the minimum separation angle of the Sun and target in the sky in any direction. It does NOT indicate the amount of separation in the leading or trailing directions, which would be defined along the equator of a spherical coordinate system. Units: DEGREES 'T-O-M/MN_Illu%' = Target-Observer-Moon LUNAR ELONGATION angle and illuminated percentage. The apparent lunar elongation angle between target body center and Moon center, seen from the observing site, along with fraction of the lunar disk illuminated by the Sun. A negative lunar elongation angle indicates the target center is behind the Moon. Units: DEGREES & PERCENT 'Cnst' = Constellation ID; the 3-letter abbreviation for the name of the constellation containing the target centers' astrometric position, as defined by IAU (1930) boundary delineation. See documentation for list of abbreviations. Computations by ... Solar System Dynamics Group, Horizons On-Line Ephemeris System 4800 Oak Grove Drive, Jet Propulsion Laboratory Pasadena, CA 91109 USA General site: https://ssd.jpl.nasa.gov/ Mailing list: https://ssd.jpl.nasa.gov/email_list.html System news : https://ssd.jpl.nasa.gov/horizons/news.html User Guide : https://ssd.jpl.nasa.gov/horizons/manual.html Connect : browser https://ssd.jpl.nasa.gov/horizons/app.html#/x API https://ssd-api.jpl.nasa.gov/doc/horizons.html command-line telnet ssd.jpl.nasa.gov 6775 e-mail/batch https://ssd.jpl.nasa.gov/ftp/ssd/horizons_batch.txt scripts https://ssd.jpl.nasa.gov/ftp/ssd/SCRIPTS Author : Jon.D.Giorgini@jpl.nasa.gov ********************************************************************************************************************************* !$$SOF COMMAND = '2006 HV5' QUANTITIES = '1,9,20,23,25,29' START_TIME = '2023-04-21' STEP_SIZE = '2 hours' STOP_TIME = '2023-04-26'